Wind_Speed
12 7 8 9 9 10 10 12 10 2 1 3 7 5 5 4 2 5 6 9 11 6 4 5 4 5 7 9 14 19 21 19 19 20 20 21 21 21 21 20 20 20 19 20 19 18 18 18 18 18 18 17 19 18 17 18 15 16 18 16 17 16 14 16 16 16 15 15 15 14 14 14 12 12 11 10 11 11 11 12 12 12 12 11 11 10
11 8 9 12 13 13 10 11 10 5 4 2 5 4 3 3 1 2 5 8 7 3 5 7 5 5 5 4 6 11 16 18 21 21 19 21 21 20 21 21 20 20 19 20 20 19 19 19 19 19 18 18 20 21 20 19 17 16 16 16 16 16 14 15 15 15 14 14 14 13 12 11 12 13 11 9 10 11 11 11 11 11 11 11 11 10
9 9 11 13 14 14 10 9 12 8 8 3 3 4 3 3 3 2 4 6 3 1 5 9 6 3 3 4 3 2 5 12 18 21 20 21 21 20 21 22 21 20 20 21 21 20 20 20 20 19 19 19 20 20 19 19 19 18 17 16 15 15 14 13 14 14 13 13 14 13 12 11 11 12 11 10 10 11 10 11 11 10 11 10 10 10
7 9 13 15 14 13 11 12 15 10 8 5 4 4 3 6 5 2 5 8 3 1 4 7 4 2 2 3 3 5 3 5 8 17 22 20 20 20 21 22 21 21 22 21 21 20 20 21 20 19 19 20 20 19 19 19 19 19 17 16 15 15 14 13 14 14 12 13 15 16 14 13 13 11 11 11 11 10 9 10 10 10 11 10 10 9
8 10 13 16 14 10 11 14 13 9 5 6 6 5 6 11 7 2 7 9 4 2 3 7 4 3 2 2 3 3 2 4 13 15 22 20 20 20 21 22 22 22 23 23 22 21 21 21 20 20 20 20 20 20 20 19 19 19 17 16 16 16 15 14 15 14 13 14 15 15 15 15 15 13 11 11 11 11 10 9 9 10 11 10 9 9
10 11 13 16 13 10 12 12 8 7 5 6 9 9 8 12 8 6 10 9 4 2 6 7 3 3 3 5 5 1 2 2 14 18 21 21 20 21 20 22 22 22 22 23 23 22 21 22 20 20 20 20 20 20 20 19 18 18 17 16 17 16 15 15 15 14 15 16 15 14 15 15 14 13 12 11 11 11 11 9 9 10 10 9 9 9
8 10 13 15 12 12 12 9 9 11 6 4 7 7 9 10 10 12 11 7 4 3 6 7 2 2 2 4 5 3 2 3 9 17 22 22 20 22 21 21 22 22 23 22 22 22 22 22 21 21 21 20 20 19 19 20 18 17 17 17 16 16 15 15 14 14 15 16 15 14 13 13 13 13 12 11 10 11 12 10 9 10 10 9 9 8
10 13 12 10 10 12 10 7 12 13 7 3 8 15 13 11 13 14 10 4 2 4 5 6 2 2 3 4 5 5 4 5 9 16 20 22 22 23 22 22 22 23 23 23 23 23 22 22 21 21 21 20 19 19 20 20 19 17 17 17 16 15 15 15 15 14 15 14 15 14 12 11 11 11 12 12 11 11 13 12 10 10 10 10 9 8
11 13 8 9 10 9 7 9 13 10 6 1 14 16 10 11 13 12 8 4 4 4 5 6 3 2 3 2 5 7 6 6 11 15 17 23 23 23 23 23 23 23 23 23 23 23 23 22 21 21 20 19 19 20 20 19 19 17 17 17 16 15 15 15 15 15 15 14 14 15 13 12 12 11 11 13 12 12 13 12 11 10 10 10 10 9
9 10 7 9 10 7 7 12 14 9 3 8 19 16 9 10 9 8 5 3 5 3 4 9 8 3 3 4 5 7 7 8 9 12 16 22 24 23 24 24 23 22 23 23 22 23 23 22 21 20 20 19 19 20 20 19 18 18 18 18 16 15 15 15 14 15 15 14 15 15 14 14 14 13 12 12 13 14 14 13 12 11 11 11 10 9
7 9 9 5 7 7 10 13 17 11 7 11 16 14 10 8 5 4 2 1 3 1 3 10 12 7 3 4 6 6 6 9 10 11 15 20 23 24 23 24 24 23 23 23 22 22 22 22 21 21 20 20 20 20 20 20 19 19 20 19 18 16 15 15 14 14 14 15 14 15 15 14 14 14 14 12 12 13 14 13 12 11 11 11 10 9
7 8 8 5 6 8 10 13 17 12 9 8 8 11 9 5 2 2 1 1 2 2 3 9 13 11 6 4 7 8 7 11 13 12 14 19 23 24 23 23 24 24 24 23 24 24 23 23 22 21 21 21 21 21 21 22 21 21 21 20 19 17 15 15 14 14 14 15 14 14 15 14 14 14 14 13 12 12 13 12 11 11 12 11 10 9
8 8 6 7 6 11 12 10 12 7 5 8 5 9 5 2 0 2 2 3 2 1 4 9 11 9 5 2 8 12 11 13 16 14 16 21 24 24 23 24 25 25 24 23 24 25 24 24 23 22 22 22 22 23 22 22 21 21 22 21 20 18 16 15 15 14 14 15 15 14 14 15 14 13 13 13 11 11 13 13 12 12 12 12 11 10
8 8 8 7 7 13 14 9 8 7 5 7 6 5 5 3 0 1 2 3 2 2 3 4 6 4 3 1 7 12 13 14 17 15 17 21 23 24 24 24 25 25 25 24 24 25 24 24 24 23 23 22 22 22 22 22 22 22 22 22 20 18 17 16 16 16 15 15 15 14 14 14 13 13 12 12 11 10 11 12 12 11 11 11 11 11
9 7 10 11 8 12 14 11 8 5 6 10 9 7 5 5 4 1 2 2 2 2 3 2 3 2 1 1 2 9 12 14 16 15 16 18 20 24 25 23 24 25 26 25 24 25 25 25 25 23 24 24 22 22 22 23 23 23 23 22 21 19 18 17 17 17 17 16 15 14 14 13 13 13 12 11 11 10 10 11 11 11 10 11 12 12
11 8 10 15 12 14 15 13 11 7 4 8 10 8 5 6 6 3 1 1 4 3 1 2 2 2 1 2 2 6 11 10 9 12 16 15 15 21 23 23 24 25 25 25 24 25 25 25 24 24 24 24 23 22 22 23 24 23 23 22 21 20 19 18 18 18 17 16 15 14 14 14 13 12 12 12 11 10 10 10 11 11 10 10 11 11
8 8 10 15 13 15 16 14 12 9 5 1 7 9 7 6 5 2 0 4 6 4 1 2 1 1 2 1 0 6 8 5 4 6 12 14 14 14 16 20 24 25 25 26 25 25 25 25 25 24 24 24 24 23 21 23 23 22 22 22 21 20 20 18 18 18 18 17 16 15 15 15 14 13 13 12 12 11 10 10 11 11 11 10 10 11
6 7 9 14 9 11 16 16 14 14 9 4 3 2 4 5 4 2 2 4 5 2 1 4 4 2 2 0 2 7 8 5 5 4 7 13 14 12 13 17 23 25 25 25 25 25 25 26 26 25 25 24 24 23 22 22 22 21 22 22 22 21 21 20 19 18 18 18 17 16 15 14 14 14 13 11 12 12 12 11 11 11 11 10 9 11
6 5 8 13 8 9 13 12 11 13 14 10 4 3 1 5 5 4 4 3 3 2 2 2 4 3 4 2 4 9 12 10 8 6 6 9 12 14 16 20 22 25 25 24 25 25 25 27 27 25 25 25 24 23 22 22 21 21 21 21 22 21 21 20 19 18 18 18 17 15 16 15 14 14 14 12 12 12 13 12 12 12 12 10 9 10
5 6 4 8 7 8 10 7 7 9 12 11 8 4 5 5 3 4 3 3 3 2 3 1 2 3 4 3 6 9 13 15 13 10 8 11 15 16 16 21 24 26 26 25 26 25 26 27 26 25 25 25 25 24 23 22 21 21 21 21 21 21 20 19 19 19 19 18 16 15 15 16 14 14 15 14 12 12 12 11 11 12 12 11 11 11
5 5 3 5 5 8 7 6 8 8 9 9 8 6 6 4 2 3 4 4 4 3 2 3 2 3 2 2 5 9 11 15 17 13 10 15 21 20 16 18 23 26 26 26 27 26 26 27 26 25 25 25 25 24 23 23 23 22 21 21 21 20 20 20 19 20 19 18 17 16 16 16 15 15 14 14 13 12 11 11 11 11 11 12 13 12
4 4 2 1 3 6 7 9 11 12 9 10 9 8 7 5 3 3 5 5 4 5 3 3 3 2 2 1 4 8 9 12 18 17 14 18 23 23 20 18 18 23 26 26 26 26 26 26 26 26 25 25 26 25 24 23 23 23 22 22 22 21 20 21 20 19 19 18 18 17 17 16 16 16 14 14 14 13 12 13 13 12 11 11 12 13
4 3 6 6 4 6 8 12 13 14 12 10 9 9 9 7 4 3 4 3 2 4 3 3 5 2 4 3 3 6 9 13 19 21 19 21 24 25 22 16 11 14 23 26 25 26 27 26 26 26 25 25 26 25 24 24 24 23 23 22 22 21 21 21 20 19 18 19 18 17 17 16 16 16 15 14 13 13 14 14 14 13 12 11 11 12
7 3 6 7 7 9 9 11 11 11 11 8 6 7 8 8 6 6 5 3 3 3 3 1 4 1 3 3 3 5 8 12 17 20 20 20 23 26 24 19 13 10 17 25 25 25 26 26 26 27 27 26 26 25 24 24 25 24 23 23 22 22 22 21 20 19 19 19 18 17 17 16 16 16 16 15 14 15 15 14 14 14 13 13 12 12
5 4 5 5 6 6 6 7 8 9 8 7 7 7 8 9 9 8 6 3 2 4 4 1 3 1 2 2 4 6 7 9 12 16 19 18 20 23 22 24 22 13 11 20 24 26 26 25 25 27 27 26 26 25 23 23 25 25 23 24 23 22 22 21 20 19 19 19 18 18 17 16 16 16 16 16 15 15 14 14 15 15 14 14 13 13
4 4 4 5 6 3 2 2 3 6 7 7 7 6 6 10 11 9 5 6 5 3 3 1 5 5 3 1 2 4 5 8 10 12 16 16 19 21 19 22 27 19 12 14 20 24 25 22 21 24 26 26 25 24 23 22 24 26 24 24 23 22 22 22 21 20 20 19 19 20 19 18 17 16 16 16 16 15 14 14 15 14 14 15 14 14
4 5 6 7 7 6 5 7 8 5 4 7 7 8 9 10 9 7 6 4 4 4 0 2 5 8 6 3 2 2 2 5 8 11 13 14 18 20 18 19 26 25 18 15 16 20 22 19 18 20 23 24 23 23 22 21 24 26 26 24 24 24 23 22 22 21 20 20 19 20 21 20 18 17 16 16 16 15 15 15 15 14 14 15 15 15
4 4 7 10 9 9 9 10 10 8 8 9 10 12 12 11 8 9 10 5 2 4 2 1 4 8 9 8 6 5 4 4 4 10 12 12 14 17 17 18 22 25 22 18 16 17 19 20 20 21 24 24 21 21 21 21 23 25 26 26 25 25 24 23 23 22 21 21 20 19 21 21 19 17 16 16 17 16 16 15 15 15 15 14 15 15
3 4 8 10 10 10 10 10 11 9 11 13 10 12 12 14 12 11 10 6 1 2 5 6 8 9 9 11 11 10 9 7 7 7 9 10 11 16 19 18 20 23 23 23 21 18 19 23 23 23 24 25 23 23 23 22 23 25 26 26 25 24 25 24 24 24 23 22 21 20 20 20 20 19 18 17 17 18 17 15 15 16 16 16 15 14
2 5 8 11 11 10 10 13 11 10 13 12 5 1 5 13 14 9 7 7 7 7 9 8 10 11 8 9 11 13 13 11 9 7 10 13 13 15 19 19 17 19 22 25 25 22 20 21 22 22 22 24 25 26 23 20 21 24 24 23 23 22 23 23 23 24 24 23 22 21 20 20 20 20 20 19 19 20 19 18 15 15 16 17 16 15
2 4 5 8 9 9 12 14 12 11 15 8 7 14 14 8 3 2 6 7 9 10 6 9 13 11 7 7 10 12 12 12 10 9 11 15 16 15 15 17 19 18 19 23 23 22 20 19 20 20 21 23 25 25 22 18 16 17 18 20 21 21 21 22 22 23 24 24 22 20 20 20 19 20 21 22 23 23 23 23 20 17 15 16 16 17
2 3 3 6 6 7 13 13 13 14 14 2 12 15 13 12 8 11 13 12 12 12 8 12 13 7 5 6 9 10 11 10 9 9 9 13 17 17 15 17 20 19 18 21 21 20 21 20 19 20 21 21 21 21 19 17 14 14 15 17 18 19 20 21 21 22 22 22 21 21 21 20 19 20 22 23 25 25 24 24 23 21 20 18 17 17
4 3 4 5 5 6 11 9 8 11 10 2 9 11 10 11 8 10 11 14 16 15 11 9 6 4 5 4 5 7 8 8 7 6 7 9 13 17 18 20 20 18 16 18 18 17 18 19 18 18 19 18 17 17 17 17 17 16 16 16 16 18 20 21 21 21 19 19 20 22 22 20 19 21 22 21 22 23 23 23 23 23 23 22 20 19
3 3 4 4 3 6 10 9 6 4 1 3 7 10 10 9 9 10 11 14 15 13 9 6 4 4 4 2 2 4 5 6 6 5 4 5 7 10 12 15 16 15 14 15 15 15 16 18 18 17 17 17 17 18 19 19 19 18 18 19 19 19 19 20 21 22 20 19 21 22 22 22 22 22 21 20 20 21 22 22 22 22 22 23 22 21
4 5 3 3 4 4 6 7 4 2 3 6 10 11 11 9 9 10 12 13 14 13 12 9 7 7 7 6 5 5 6 8 8 7 6 7 8 9 10 13 15 15 15 14 13 12 13 15 16 17 18 18 17 17 19 20 20 19 19 20 21 20 19 19 21 22 21 20 22 23 24 25 25 23 19 17 18 19 20 20 19 19 20 21 20 19
4 6 2 3 4 2 3 4 1 2 2 5 12 12 11 10 8 8 11 13 13 12 12 10 8 7 7 7 8 5 8 13 14 11 9 9 10 11 11 12 13 13 13 13 12 11 11 11 12 14 16 16 16 16 17 18 19 20 20 21 21 20 19 20 20 20 20 21 21 22 24 25 25 23 19 17 18 20 20 19 18 19 19 18 16 18
4 5 3 3 3 3 4 3 2 4 4 4 11 10 10 10 6 3 7 11 13 13 11 10 10 8 6 8 8 4 5 12 14 13 13 13 13 14 14 13 12 12 12 11 10 11 10 10 9 10 11 12 13 14 15 17 18 20 21 21 21 21 21 21 21 21 23 24 22 21 22 21 22 22 20 19 20 21 19 18 19 20 21 19 19 21
4 3 2 3 3 3 4 3 3 4 3 3 8 11 13 11 6 2 4 8 12 14 13 11 10 11 9 8 9 8 4 3 6 10 14 15 15 15 15 13 11 10 9 9 9 9 8 7 7 7 8 10 12 13 14 17 18 20 22 23 22 23 22 22 23 24 25 25 23 20 19 17 17 18 18 19 20 18 17 17 19 20 19 18 19 21
4 3 2 4 4 3 4 5 4 1 1 3 7 10 13 13 7 0 1 4 10 15 14 11 11 13 12 11 13 12 6 2 1 5 10 12 12 13 14 14 14 13 13 12 12 13 13 11 10 9 8 9 10 10 12 15 17 19 21 21 21 21 20 21 22 23 23 22 21 19 17 15 15 15 16 17 17 17 17 18 17 15 14 13 14 17
3 3 4 4 4 4 4 4 2 3 3 5 9 10 12 13 8 4 3 1 10 14 13 13 12 12 10 11 14 11 5 1 2 3 9 12 13 14 15 16 18 19 18 16 16 19 19 17 16 15 12 10 9 6 6 8 10 12 14 16 17 17 17 18 18 19 19 18 18 16 15 13 12 12 14 16 16 14 13 12 10 8 9 10 10 11
2 3 4 4 5 5 6 4 2 4 5 10 12 12 15 12 6 3 0 2 9 11 11 12 12 10 9 10 10 8 6 6 6 10 15 16 15 16 17 20 21 20 19 18 18 20 21 20 20 20 18 16 13 10 9 8 7 9 12 13 15 17 16 16 15 15 15 14 14 13 12 12 10 8 7 10 11 7 6 5 5 6 5 5 6 4
3 4 2 3 4 3 3 1 3 5 7 15 12 13 18 10 3 2 4 4 9 11 10 11 11 10 12 13 13 13 15 15 14 16 18 17 16 15 16 18 19 18 19 20 19 19 19 20 20 20 19 16 14 13 13 13 13 13 12 13 14 15 14 15 15 14 13 13 13 12 11 11 13 14 13 12 11 11 13 12 10 11 12 10 11 10
3 3 1 2 4 3 1 2 2 3 9 16 11 9 14 8 2 4 5 6 10 10 9 11 10 9 12 17 17 16 17 16 15 18 19 18 17 14 12 14 17 17 17 17 17 19 21 22 21 19 18 16 13 13 12 13 14 13 11 11 11 11 11 12 13 12 12 12 12 12 12 12 14 15 15 14 13 12 12 10 7 8 10 10 11 12
3 3 2 3 5 4 1 3 4 3 9 16 12 8 9 9 7 7 7 8 9 8 8 10 9 8 10 15 18 18 16 15 16 19 19 18 17 15 15 16 16 16 16 15 17 19 19 19 19 17 16 15 13 11 10 10 12 11 10 8 7 8 9 9 9 9 9 9 8 8 9 10 11 11 10 11 12 12 12 10 8 7 9 8 8 8
5 4 3 4 5 5 5 5 6 7 11 15 16 13 12 13 12 11 10 9 9 9 10 9 8 8 9 10 13 15 15 15 17 17 16 16 16 16 16 16 15 15 16 16 17 16 15 14 14 13 13 12 11 9 8 8 8 7 6 5 5 6 7 7 7 8 8 8 7 6 6 5 4 4 3 4 7 7 7 7 5 4 7 9 8 8
6 4 3 4 7 9 9 8 7 9 11 13 14 15 14 14 14 13 12 12 11 11 10 10 10 9 7 6 6 8 11 14 17 16 15 16 17 16 15 15 15 15 16 15 15 14 14 14 13 12 12 11 10 8 8 8 6 4 3 3 3 4 4 5 6 6 5 6 7 7 7 4 3 4 5 3 3 4 5 4 1 2 5 7 6 6
4 1 2 4 7 6 6 7 7 8 9 10 11 13 14 14 15 14 14 14 14 12 11 11 10 7 7 6 6 9 12 14 15 15 15 16 17 16 15 15 16 15 15 15 15 15 14 14 13 13 13 13 12 8 7 7 7 6 5 3 2 3 4 4 4 5 4 4 6 8 8 6 3 3 4 3 3 2 3 5 4 5 5 6 6 7
3 5 3 3 5 4 4 7 9 9 10 9 9 10 12 13 14 14 14 14 14 13 12 12 11 10 9 8 7 10 13 13 13 13 13 14 16 17 15 15 15 14 14 14 14 14 14 14 14 13 12 12 11 8 7 8 8 8 6 3 1 1 3 3 3 4 4 3 5 7 9 9 8 7 3 2 4 6 7 8 7 7 8 9 9 9
3 4 3 3 5 6 6 7 8 7 8 9 10 10 10 11 12 13 14 15 14 14 13 12 12 12 11 9 8 8 9 9 10 11 13 15 16 17 18 17 17 17 17 16 14 14 14 14 13 11 10 10 8 7 7 7 6 6 5 4 3 1 1 2 3 4 4 3 2 4 6 8 8 7 3 3 5 6 7 9 9 8 9 9 9 9
2 2 3 1 3 3 4 5 5 4 5 7 8 9 9 9 11 12 13 14 14 14 13 12 11 11 10 9 8 6 7 8 6 7 11 14 13 15 18 20 19 19 19 19 17 15 13 12 10 8 7 6 6 5 5 4 4 4 3 4 3 1 0 2 5 5 4 4 4 4 7 8 6 5 5 2 5 7 7 8 8 8 8 9 9 9
3 5 4 2 3 3 3 5 5 5 6 7 7 7 8 8 9 10 12 13 13 12 12 12 11 11 10 8 6 5 6 7 6 6 9 12 13 14 15 18 18 17 17 16 15 12 9 8 6 5 4 4 4 4 3 2 2 4 4 4 3 1 1 3 5 3 2 3 5 7 10 8 8 10 9 4 0 4 7 8 9 10 10 9 9 9
Wind_Direction
207 211 213 217 227 226 214 227 237 222 8 111 137 149 162 171 187 173 162 152 158 146 150 166 148 180 220 197 181 177 169 172 178 172 169 165 165 169 165 162 166 165 161 161 164 161 157 156 154 151 149 153 155 150 143 147 152 153 157 161 152 155 159 151 148 147 147 146 145 149 145 142 149 153 156 155 154 155 158 160 159 160 160 156 154 157
206 223 223 218 225 232 226 229 227 158 122 131 137 132 128 122 72 146 143 154 169 163 169 176 164 186 224 223 195 184 175 178 179 176 175 169 170 172 164 164 166 163 162 162 164 162 159 158 156 154 152 154 158 152 150 153 151 151 159 160 156 157 156 152 151 148 150 151 149 151 151 150 154 155 158 160 151 153 160 157 155 159 160 157 155 154
204 230 229 222 226 230 225 232 237 195 133 120 149 132 107 114 102 98 145 160 176 161 171 176 173 182 255 284 313 328 204 194 184 177 177 175 173 172 165 165 166 162 163 165 164 164 163 161 157 156 156 155 155 154 158 161 153 152 157 158 158 156 154 156 155 151 151 152 151 155 161 155 151 154 159 165 156 154 162 157 155 159 157 157 155 152
202 226 227 228 232 225 220 223 229 209 136 135 173 132 139 173 161 150 166 167 158 39 166 162 155 176 290 294 311 340 301 255 228 188 178 180 176 172 168 166 169 166 165 169 167 166 166 162 160 159 158 157 156 155 160 162 158 157 161 162 160 155 157 161 157 153 154 157 158 161 162 152 154 166 165 167 167 161 163 159 157 160 156 155 155 153
223 222 214 227 234 217 230 236 222 211 160 162 185 166 164 176 183 178 147 148 119 36 161 142 126 195 210 235 240 320 332 291 278 223 181 181 181 174 171 169 172 171 168 171 169 170 169 164 163 162 160 160 159 162 164 162 161 162 163 163 161 158 160 162 160 159 164 163 158 157 159 158 161 165 162 167 170 165 164 160 160 162 158 156 157 157
234 222 202 217 226 208 230 242 226 221 188 169 207 211 173 159 160 145 138 139 133 175 184 161 140 188 197 211 194 357 358 255 280 245 188 179 183 176 175 173 173 172 170 173 171 170 170 165 166 164 163 163 160 165 166 163 164 164 164 163 161 162 161 165 167 165 166 165 163 159 156 158 161 160 161 162 163 163 160 162 169 166 163 162 161 162
242 233 214 211 208 207 223 232 234 231 210 200 209 176 132 131 134 136 143 151 157 169 182 186 182 134 197 233 181 153 194 186 277 247 194 180 183 178 179 177 174 172 172 175 172 171 172 168 168 167 166 166 163 165 166 167 170 167 164 162 162 164 164 168 171 166 164 166 170 168 160 161 164 162 161 159 165 162 152 166 183 172 169 169 163 167
237 235 220 205 205 211 208 221 243 234 225 216 138 126 124 134 137 141 152 160 143 126 154 198 236 111 188 228 171 162 182 187 240 235 194 181 185 180 182 180 176 174 173 175 174 172 174 171 170 170 169 168 166 164 166 172 176 169 163 163 163 166 166 167 168 166 166 168 169 164 163 167 164 163 161 159 167 159 153 174 185 171 173 172 165 175
226 233 208 198 214 217 204 230 246 232 238 195 116 120 131 135 136 143 149 142 144 140 152 197 216 116 177 196 152 166 187 204 230 229 194 182 186 183 183 182 177 175 173 175 176 173 175 174 171 171 170 169 167 165 165 172 178 174 168 165 164 166 166 165 166 168 168 168 167 161 162 166 163 167 167 163 167 160 161 178 178 171 175 174 175 182
216 213 185 209 219 204 212 242 247 219 166 91 105 109 102 106 119 132 135 137 150 161 175 190 195 168 173 175 160 178 198 204 220 228 201 183 184 186 184 181 177 176 174 176 178 174 174 175 173 172 172 171 168 166 165 169 177 177 172 168 167 167 167 167 168 170 167 167 169 165 163 167 166 168 170 170 172 167 171 179 175 175 176 178 185 185
235 192 155 207 235 211 213 246 257 227 144 110 114 110 93 85 84 103 103 138 155 199 192 184 192 201 209 186 180 188 197 195 196 208 201 186 185 188 186 182 178 176 177 177 178 176 174 176 175 173 174 173 169 168 166 166 172 177 175 170 169 169 168 167 168 169 167 167 173 171 167 166 166 168 172 177 179 175 177 178 176 180 177 177 187 187
245 211 160 173 247 255 230 235 248 221 171 179 140 110 98 81 60 98 103 210 205 212 187 182 189 203 223 196 190 195 191 199 201 198 196 190 188 188 187 184 181 179 178 178 178 177 175 175 175 175 176 175 171 170 168 166 169 174 174 172 172 173 168 166 169 169 167 169 176 177 172 171 170 171 175 179 181 181 181 179 180 183 180 179 184 186
218 220 189 173 216 257 255 237 230 202 183 221 166 116 113 81 209 191 164 211 233 133 171 182 183 201 235 174 172 188 192 199 202 196 193 191 187 188 190 186 183 181 179 180 178 176 177 175 176 176 176 176 171 170 171 168 168 169 171 174 176 174 169 167 169 169 169 173 179 182 178 177 176 175 178 180 181 182 181 181 183 183 183 184 184 186
202 202 204 199 202 229 247 254 218 184 181 216 211 170 145 108 220 241 211 211 175 91 93 143 163 201 268 143 162 184 197 202 202 197 192 194 190 187 192 189 181 179 181 183 178 176 178 176 176 176 175 175 172 173 173 169 170 170 171 176 177 175 172 170 171 173 174 175 179 185 183 178 177 177 180 179 177 179 180 181 182 181 186 189 186 188
210 203 199 200 189 197 224 254 244 219 195 199 218 220 180 161 165 191 255 221 137 101 49 92 174 232 238 236 190 183 188 197 208 202 189 202 202 188 191 192 180 177 182 184 178 177 180 177 175 176 174 174 174 176 175 173 175 174 173 178 180 178 176 174 175 176 177 176 180 187 184 179 180 180 179 177 176 182 182 179 179 179 188 194 191 190
222 228 192 185 183 178 201 240 256 275 256 191 200 211 205 192 174 176 265 117 142 157 119 167 204 302 222 250 264 174 164 168 192 191 181 202 211 190 192 193 181 179 184 183 180 179 179 176 175 176 174 173 176 177 175 175 178 179 179 182 182 183 181 179 180 178 179 180 181 186 186 185 187 183 179 179 182 187 182 179 184 183 188 197 194 194
230 244 191 175 182 176 188 219 232 252 286 217 209 208 196 191 186 223 136 145 177 178 148 184 160 335 223 221 211 152 140 140 157 166 177 199 212 202 201 193 181 182 185 183 183 181 177 176 178 177 174 174 177 178 177 174 175 181 184 183 183 185 184 182 184 182 182 183 184 187 189 190 192 186 184 187 188 184 180 187 196 187 187 197 196 193
273 260 174 161 181 176 183 206 217 232 252 275 270 231 189 193 186 229 221 194 207 170 149 188 153 184 241 188 161 147 139 178 193 150 170 198 212 222 222 200 183 182 186 184 182 180 177 178 180 179 176 176 177 178 179 175 174 180 183 183 185 187 186 186 186 184 185 186 188 191 190 192 194 187 188 197 192 182 182 194 197 188 189 197 198 195
285 268 157 154 184 175 175 201 213 222 231 242 290 4 255 223 194 203 229 241 240 151 145 180 139 187 246 230 194 169 158 178 194 175 171 193 211 218 220 211 193 182 185 185 182 182 181 180 182 181 178 179 178 178 179 177 176 178 178 180 184 185 186 187 183 184 189 188 188 193 193 192 191 185 189 196 193 187 189 194 193 191 192 193 196 199
296 281 168 154 195 187 170 194 215 208 213 233 260 256 228 238 218 208 225 260 261 178 141 157 159 214 237 220 206 186 168 170 178 183 178 188 209 217 215 212 198 183 184 187 184 185 183 182 184 183 179 179 179 180 180 180 179 178 177 178 182 183 184 184 182 186 191 187 185 193 197 195 191 189 193 195 194 193 191 193 197 195 192 191 196 202
271 248 187 152 208 217 182 185 221 213 193 209 235 238 231 233 207 209 232 242 252 251 178 156 180 231 238 215 213 196 175 169 173 177 179 190 206 215 216 215 201 184 181 186 186 186 185 184 185 184 182 181 181 182 182 183 183 180 178 178 179 183 183 181 186 192 191 186 186 193 197 197 195 194 197 198 194 189 187 193 205 207 200 197 197 200
254 238 260 191 200 227 198 186 217 227 206 197 207 221 232 234 206 208 237 231 230 261 272 119 128 258 262 233 222 199 176 171 172 173 182 192 201 209 213 219 205 184 181 186 186 187 185 184 185 184 184 182 182 184 184 184 184 182 181 180 180 184 184 182 187 193 191 187 190 195 195 195 199 197 199 203 197 189 191 197 204 212 211 204 199 200
327 298 299 299 287 269 225 185 201 230 232 218 211 214 221 225 218 216 239 254 260 286 297 127 129 226 246 214 212 194 174 174 174 174 184 192 195 200 205 216 214 188 188 189 188 189 185 185 187 185 185 185 183 185 187 186 184 184 184 183 183 185 186 185 187 191 192 190 192 197 195 195 201 200 200 206 203 198 201 202 204 210 210 205 206 206
345 283 274 292 295 279 237 176 177 222 246 248 230 221 221 222 215 206 222 258 272 289 302 138 123 197 234 176 162 183 179 180 176 175 183 190 192 192 196 205 209 191 187 187 188 190 185 186 190 186 184 187 184 185 189 188 186 186 185 183 184 186 187 187 188 193 198 195 192 196 199 199 201 203 204 205 207 209 207 206 207 209 207 206 209 210
330 266 255 271 275 253 204 167 171 197 224 245 238 221 216 227 232 220 206 207 249 292 311 34 83 252 249 127 144 177 182 185 184 185 188 188 189 188 188 198 202 195 187 186 184 184 182 186 191 187 183 185 185 186 188 188 185 185 187 185 184 185 187 187 186 191 199 197 193 196 200 201 201 205 208 206 209 214 211 210 215 213 208 208 212 212
305 292 273 260 268 260 154 217 236 194 193 221 252 256 227 223 235 236 215 192 192 232 283 92 127 171 194 109 148 171 171 180 182 191 195 188 189 185 177 189 198 194 188 188 182 180 182 184 183 182 181 180 183 187 190 190 187 184 184 185 187 188 189 189 187 190 200 200 197 199 200 201 204 206 209 210 212 215 214 216 223 224 216 210 214 220
283 294 290 274 280 305 321 298 289 274 225 216 224 247 254 241 233 243 259 251 176 156 275 29 111 147 153 135 180 192 205 200 175 180 190 183 183 181 166 174 191 191 189 190 180 177 183 184 177 181 186 180 180 186 191 197 194 189 187 186 189 191 191 192 190 193 203 205 201 205 203 200 203 206 209 214 213 214 218 218 220 228 229 219 214 219
280 280 273 267 265 270 279 285 287 281 275 261 220 211 242 256 245 238 236 236 107 122 137 66 124 140 149 164 183 195 224 253 193 177 181 174 173 170 156 158 173 181 186 188 180 175 184 186 179 184 189 182 179 184 189 194 195 193 192 190 190 193 192 194 193 192 203 208 203 208 210 205 203 204 208 215 215 213 216 220 220 225 233 233 222 214
303 289 276 273 261 247 245 259 276 276 275 273 236 202 219 231 237 254 242 228 319 124 159 174 157 139 149 165 165 170 191 220 221 186 157 152 159 155 153 158 165 168 170 170 167 166 175 180 175 173 176 175 178 185 186 190 193 192 192 189 188 190 190 194 197 196 202 209 204 207 215 211 203 202 206 213 217 214 213 218 222 222 225 231 230 220
14 286 288 293 279 261 244 234 242 265 269 267 258 259 255 225 216 244 268 270 270 225 187 165 129 114 127 151 149 155 168 181 196 180 146 155 169 159 158 168 172 168 164 160 160 157 156 163 164 161 164 169 176 182 184 190 192 188 188 188 187 188 188 191 197 198 202 209 207 208 218 218 207 203 206 210 214 215 215 216 216 218 223 227 228 226
41 270 281 293 282 281 272 241 216 242 259 265 25 20 351 312 237 23 354 324 290 259 208 121 100 96 102 122 129 137 143 147 156 155 147 159 172 171 170 176 176 174 169 164 166 167 160 157 160 162 162 165 169 176 182 189 186 179 182 187 187 189 190 191 196 198 201 207 206 205 215 220 215 209 208 211 213 214 215 216 211 208 214 221 225 226
329 279 265 270 260 273 278 249 211 225 239 244 42 27 354 336 9 33 18 12 6 354 24 76 86 78 65 88 111 122 130 137 143 151 154 155 159 165 177 185 182 181 179 170 169 175 177 176 177 175 173 170 169 172 178 183 181 179 184 187 187 190 191 193 200 201 200 204 204 205 212 218 220 219 217 218 219 219 220 222 219 214 214 216 222 227
300 298 288 282 270 276 283 265 226 232 228 147 43 24 350 338 13 39 23 21 27 26 38 59 64 64 66 83 111 114 121 134 141 158 166 154 152 162 174 182 179 178 183 179 171 174 183 187 190 190 188 186 186 188 188 186 186 190 193 189 190 195 194 194 201 203 202 203 205 210 215 215 216 221 222 222 223 223 224 226 225 224 223 220 221 225
300 287 279 287 285 284 297 311 320 303 232 91 43 16 356 0 33 48 35 27 28 38 53 53 39 39 31 9 105 97 111 132 137 149 153 135 137 150 159 158 152 151 163 170 168 169 176 183 188 193 198 202 207 211 210 206 200 199 197 193 194 199 199 200 204 203 201 203 207 213 216 213 213 217 219 221 224 225 228 229 230 229 229 227 224 223
305 279 259 256 270 287 303 312 332 27 67 70 52 22 5 25 57 63 51 37 29 35 43 42 45 40 14 357 21 60 89 95 93 94 88 92 106 112 112 112 112 120 132 140 145 153 164 175 182 190 198 204 211 217 218 217 213 208 202 199 200 202 206 212 212 206 204 206 209 212 216 218 219 219 217 219 224 228 230 231 233 233 231 229 226 229
293 291 288 243 254 261 266 279 308 149 197 65 55 31 12 29 53 65 59 42 28 31 35 30 27 35 37 28 22 43 93 82 70 70 75 85 106 114 108 101 99 102 110 120 128 134 142 158 173 186 195 201 208 211 211 210 211 210 207 205 206 209 213 216 214 211 212 214 213 214 218 223 224 223 223 227 232 235 237 238 240 240 238 233 228 232
282 293 296 248 237 234 244 246 131 169 200 60 40 14 7 27 41 67 70 49 28 24 33 31 18 20 54 68 45 30 105 96 76 64 69 85 105 112 106 99 100 105 111 121 130 133 141 155 170 182 189 195 202 208 209 208 209 210 211 211 214 217 218 215 213 212 213 212 212 213 216 221 224 226 228 234 239 242 244 245 247 247 248 244 236 234
236 242 279 270 225 217 249 241 187 188 189 48 15 348 350 11 35 89 79 51 26 19 30 35 23 22 34 56 51 19 346 124 99 76 77 87 96 100 96 93 98 103 105 111 116 117 125 138 149 162 176 187 195 201 206 208 207 209 210 210 214 217 216 213 213 213 212 210 210 211 211 214 219 221 222 227 236 241 243 245 246 246 246 239 229 230
220 200 240 265 239 226 248 243 234 215 116 2 350 338 336 348 4 311 133 41 6 6 26 36 35 36 30 32 47 40 12 331 97 86 92 94 93 96 98 97 98 96 92 94 98 96 99 109 119 128 150 172 182 191 200 203 205 205 204 203 204 206 207 207 209 211 211 210 211 213 215 216 218 221 222 227 233 235 236 239 237 231 225 217 212 222
219 214 211 226 241 240 235 234 232 92 75 353 339 335 333 337 333 275 209 57 349 356 22 32 36 54 58 55 61 63 62 43 339 67 98 100 97 98 102 105 104 100 98 96 93 90 89 91 95 95 98 109 122 141 174 197 205 199 187 181 179 178 182 190 198 202 204 205 207 210 212 212 212 219 224 224 225 227 229 233 230 217 213 207 203 217
277 275 228 225 233 216 210 217 150 104 42 349 337 343 340 322 290 280 344 2 348 4 32 33 36 64 83 83 81 84 102 107 82 81 91 96 97 96 100 107 106 102 103 105 102 99 97 94 94 90 82 78 81 92 108 123 145 154 150 150 151 149 151 160 166 171 176 180 183 183 184 182 171 161 176 191 193 179 139 117 100 93 111 151 157 166
318 299 251 257 275 247 227 246 123 112 20 348 341 4 1 334 242 51 10 346 7 25 39 35 43 71 85 90 98 103 106 106 103 103 102 103 105 101 100 111 114 112 118 122 118 115 111 106 104 101 94 89 86 90 104 114 120 122 123 127 130 126 124 129 132 129 128 135 145 147 145 146 137 121 115 125 131 118 102 95 96 104 110 118 124 121
339 311 349 12 352 336 284 26 82 98 18 2 359 22 21 19 87 35 359 9 30 36 40 40 49 79 94 100 107 112 116 119 122 127 126 124 126 125 123 131 131 124 128 135 132 126 119 112 109 106 103 101 96 94 104 114 114 112 112 116 119 118 118 124 128 123 116 118 128 131 124 118 116 116 117 118 118 114 105 95 95 111 114 116 126 130
14 348 26 33 5 346 13 57 63 77 42 33 41 58 49 51 59 42 34 42 39 39 49 53 63 84 99 110 116 117 125 134 135 136 135 132 135 137 133 133 131 123 125 131 129 124 118 112 112 114 113 108 101 99 107 112 110 109 104 95 103 121 125 127 135 141 133 119 120 131 130 117 110 114 119 120 118 116 110 103 104 111 109 110 120 127
29 45 69 55 42 51 75 87 85 81 68 58 60 65 60 55 55 55 58 58 50 49 52 58 80 97 102 114 118 116 124 135 137 139 139 132 131 134 132 129 127 124 124 122 117 114 109 104 106 111 112 106 102 108 115 108 101 104 99 90 104 124 127 132 143 151 143 125 116 120 116 102 94 90 87 113 123 112 92 86 93 114 128 135 144 145
74 98 115 99 97 93 89 98 101 86 80 75 68 62 57 53 53 55 56 55 55 58 57 58 73 91 99 103 109 114 126 134 136 138 139 135 132 136 139 136 131 129 128 125 121 117 112 108 103 99 94 85 80 88 97 97 103 104 80 91 144 154 151 160 162 157 150 135 123 109 95 76 40 28 27 38 70 57 57 80 124 191 142 141 163 162
79 81 161 139 132 123 99 99 102 90 83 79 70 65 60 53 52 53 51 51 54 58 62 60 59 68 82 87 99 113 121 131 136 135 137 141 140 141 142 139 137 137 134 132 131 127 121 115 109 104 100 94 91 89 82 87 102 99 75 71 173 191 189 191 180 171 175 167 145 133 131 139 131 73 57 63 76 78 121 140 183 215 175 156 170 164
56 31 29 96 111 111 108 108 102 89 82 76 68 66 61 55 55 55 51 52 53 55 62 64 58 63 77 88 101 111 117 128 138 139 138 140 142 143 143 141 141 142 139 136 138 136 129 122 119 121 122 120 120 113 95 92 101 105 108 132 202 187 188 205 193 172 168 166 169 168 165 160 143 118 109 182 177 175 177 172 176 188 182 175 174 167
60 65 71 108 116 113 121 128 127 113 97 83 73 70 63 57 58 56 54 56 53 51 55 58 56 63 79 93 103 117 127 132 138 144 142 141 145 152 153 151 149 146 143 141 141 141 136 130 131 136 137 134 130 121 112 111 110 116 146 204 245 268 203 195 160 143 133 127 164 193 175 160 144 126 133 226 224 200 187 189 191 189 186 189 192 193
0 75 64 97 140 130 113 111 115 115 104 87 75 72 68 63 62 59 55 55 53 50 51 53 53 57 70 85 97 121 143 147 155 162 154 153 162 168 166 163 160 156 154 152 151 151 148 140 136 137 130 119 114 117 126 127 125 142 182 249 271 283 344 120 131 139 149 157 177 169 146 148 168 165 148 190 252 239 220 216 222 219 208 204 205 209
54 71 63 73 111 118 101 88 83 94 107 103 85 71 68 67 66 64 58 54 54 53 51 52 53 51 55 69 82 101 128 147 169 180 171 170 173 174 176 177 172 166 162 159 161 166 163 151 145 140 131 119 105 107 116 110 148 196 233 276 283 256 185 130 124 117 144 183 193 173 156 160 188 187 166 131 84 245 238 241 245 244 241 243 248 252
Height
1486 1491 1493 1493 1489 1484 1482 1481 1482 1484 1487 1494 1502 1507 1511 1515 1520 1517 1513 1513 1513 1521 1527 1523 1524 1525 1523 1518 1514 1515 1517 1518 1520 1521 1523 1525 1527 1529 1531 1534 1536 1538 1541 1543 1546 1548 1549 1552 1553 1555 1557 1558 1560 1562 1563 1565 1566 1567 1568 1570 1571 1573 1574 1575 1576 1577 1578 1580 1581 1582 1584 1585 1586 1587 1587 1588 1589 1590 1590 1591 1592 1593 1594 1595 1596 1597
1486 1492 1490 1484 1482 1478 1476 1476 1478 1485 1489 1495 1503 1510 1513 1517 1522 1518 1515 1516 1513 1520 1527 1524 1524 1526 1523 1520 1517 1516 1517 1518 1519 1521 1523 1525 1527 1529 1530 1533 1536 1538 1541 1543 1545 1547 1549 1552 1553 1555 1557 1558 1559 1561 1563 1565 1566 1568 1569 1570 1571 1572 1574 1576 1577 1578 1579 1580 1581 1583 1584 1584 1586 1587 1587 1588 1589 1590 1590 1591 1592 1593 1594 1595 1596 1597
1488 1490 1483 1477 1474 1472 1474 1475 1477 1483 1491 1498 1503 1510 1517 1519 1520 1521 1519 1516 1515 1521 1527 1525 1527 1528 1524 1521 1520 1519 1520 1519 1519 1521 1523 1525 1526 1528 1530 1532 1535 1537 1540 1542 1544 1547 1549 1551 1553 1555 1557 1558 1559 1561 1563 1564 1566 1568 1569 1570 1571 1572 1574 1576 1577 1578 1579 1580 1582 1583 1584 1584 1586 1587 1587 1588 1589 1590 1590 1591 1592 1593 1594 1595 1596 1597
1490 1485 1476 1472 1470 1470 1475 1476 1476 1481 1491 1499 1500 1508 1520 1518 1517 1524 1524 1519 1518 1522 1526 1527 1530 1531 1527 1524 1522 1522 1522 1521 1521 1523 1524 1525 1526 1527 1529 1532 1534 1536 1539 1542 1544 1546 1548 1551 1553 1554 1556 1558 1560 1561 1563 1564 1565 1567 1568 1570 1571 1572 1574 1576 1577 1578 1579 1580 1581 1582 1584 1584 1586 1587 1587 1588 1589 1590 1591 1591 1592 1593 1594 1595 1596 1597
1482 1474 1469 1470 1468 1471 1477 1476 1474 1479 1491 1497 1496 1502 1513 1513 1512 1517 1520 1522 1524 1525 1525 1528 1537 1538 1532 1530 1527 1523 1523 1523 1524 1525 1524 1526 1527 1528 1530 1532 1534 1536 1538 1541 1543 1546 1548 1550 1552 1554 1556 1557 1559 1561 1562 1563 1565 1566 1568 1569 1570 1572 1574 1575 1577 1578 1579 1580 1581 1582 1583 1584 1585 1587 1587 1588 1589 1590 1591 1592 1592 1593 1594 1595 1596 1597
1474 1465 1464 1470 1470 1472 1478 1477 1472 1476 1488 1495 1492 1489 1496 1504 1510 1514 1517 1524 1533 1536 1528 1527 1544 1548 1534 1531 1531 1526 1527 1527 1528 1528 1525 1526 1527 1528 1530 1531 1533 1536 1538 1541 1543 1545 1548 1550 1552 1554 1555 1557 1559 1561 1562 1563 1564 1566 1567 1569 1570 1572 1573 1575 1576 1578 1579 1580 1581 1582 1583 1584 1585 1586 1588 1588 1589 1590 1591 1592 1593 1594 1595 1595 1596 1597
1469 1462 1461 1466 1470 1474 1478 1478 1473 1472 1483 1492 1484 1479 1488 1499 1509 1516 1520 1526 1536 1539 1528 1523 1539 1548 1539 1532 1530 1529 1531 1532 1533 1531 1525 1525 1527 1527 1529 1530 1532 1535 1538 1540 1542 1545 1547 1549 1552 1553 1555 1557 1558 1561 1562 1563 1564 1565 1567 1568 1570 1572 1573 1575 1576 1578 1579 1580 1581 1582 1583 1584 1585 1587 1588 1589 1590 1590 1592 1593 1593 1594 1595 1596 1597 1598
1466 1464 1463 1464 1470 1474 1478 1480 1472 1466 1477 1483 1474 1476 1490 1497 1505 1514 1520 1526 1529 1529 1530 1527 1530 1542 1545 1535 1529 1530 1534 1535 1535 1530 1524 1524 1526 1526 1528 1529 1531 1534 1536 1539 1542 1544 1547 1549 1551 1553 1555 1556 1558 1560 1562 1563 1564 1565 1567 1568 1570 1572 1573 1575 1576 1578 1579 1580 1581 1583 1584 1585 1586 1587 1588 1589 1590 1591 1592 1593 1593 1594 1595 1596 1597 1598
1462 1465 1465 1467 1472 1475 1475 1476 1467 1462 1472 1473 1467 1477 1489 1494 1502 1509 1514 1521 1522 1527 1539 1536 1529 1541 1548 1535 1529 1534 1536 1536 1534 1528 1523 1523 1524 1525 1527 1528 1530 1533 1536 1538 1540 1543 1546 1548 1550 1552 1554 1556 1558 1560 1561 1562 1563 1565 1566 1568 1570 1571 1573 1575 1576 1578 1579 1580 1581 1582 1584 1585 1586 1587 1588 1589 1590 1590 1592 1592 1593 1594 1595 1596 1597 1597
1460 1461 1462 1465 1471 1473 1472 1469 1462 1462 1471 1470 1470 1483 1492 1497 1504 1508 1514 1518 1521 1531 1541 1536 1528 1540 1548 1538 1534 1538 1537 1535 1534 1529 1522 1520 1523 1524 1525 1527 1529 1532 1535 1537 1540 1542 1545 1547 1550 1552 1554 1556 1557 1559 1561 1562 1563 1565 1566 1568 1569 1571 1573 1575 1576 1578 1579 1580 1582 1583 1584 1585 1586 1587 1588 1588 1589 1590 1591 1592 1593 1593 1594 1596 1597 1597
1457 1455 1459 1464 1467 1467 1467 1467 1461 1459 1465 1468 1476 1490 1498 1504 1506 1509 1515 1518 1528 1538 1534 1528 1523 1530 1543 1540 1532 1532 1530 1527 1530 1529 1522 1519 1522 1523 1524 1526 1528 1531 1534 1537 1539 1541 1544 1547 1549 1551 1553 1555 1557 1559 1561 1562 1562 1564 1566 1567 1569 1570 1572 1574 1575 1577 1579 1580 1582 1583 1584 1584 1585 1587 1587 1588 1589 1590 1591 1591 1592 1593 1594 1595 1596 1597
1461 1459 1461 1464 1465 1463 1465 1467 1460 1454 1457 1464 1477 1490 1504 1516 1516 1519 1524 1525 1536 1541 1528 1520 1518 1524 1538 1537 1526 1523 1520 1519 1522 1522 1519 1518 1520 1521 1523 1525 1527 1530 1533 1535 1538 1540 1543 1546 1548 1550 1552 1554 1556 1558 1560 1562 1562 1563 1565 1567 1568 1570 1571 1573 1575 1576 1578 1580 1581 1582 1584 1584 1585 1586 1587 1588 1589 1589 1590 1591 1592 1593 1594 1595 1596 1597
1468 1464 1460 1463 1467 1466 1469 1471 1463 1459 1461 1466 1477 1491 1513 1532 1533 1533 1535 1532 1535 1535 1522 1515 1518 1527 1530 1521 1517 1518 1516 1515 1515 1516 1516 1517 1518 1519 1521 1523 1526 1529 1532 1533 1536 1539 1541 1544 1546 1549 1551 1553 1555 1557 1559 1561 1562 1563 1565 1566 1567 1569 1571 1572 1574 1576 1577 1579 1581 1582 1583 1584 1585 1585 1586 1587 1588 1589 1590 1591 1592 1593 1594 1594 1595 1596
1473 1468 1463 1468 1471 1467 1470 1474 1471 1470 1471 1475 1479 1491 1517 1540 1547 1546 1539 1532 1534 1531 1523 1517 1522 1533 1528 1515 1511 1513 1512 1512 1512 1513 1515 1515 1516 1518 1519 1521 1524 1527 1530 1533 1534 1538 1540 1542 1545 1547 1550 1553 1555 1557 1558 1560 1562 1563 1564 1566 1567 1569 1570 1572 1573 1575 1577 1578 1580 1582 1583 1583 1584 1585 1586 1587 1588 1589 1590 1590 1591 1592 1593 1594 1595 1596
1478 1478 1467 1467 1470 1467 1468 1468 1466 1466 1470 1475 1473 1479 1501 1521 1539 1548 1538 1533 1537 1534 1530 1528 1530 1533 1529 1518 1509 1507 1509 1511 1512 1513 1514 1515 1516 1517 1519 1520 1523 1526 1529 1532 1533 1536 1539 1541 1544 1546 1549 1552 1554 1556 1558 1559 1561 1562 1563 1565 1566 1568 1570 1571 1573 1574 1576 1578 1579 1581 1582 1583 1584 1585 1586 1587 1588 1589 1589 1590 1591 1592 1593 1594 1595 1596
1474 1474 1458 1455 1459 1461 1468 1464 1458 1465 1471 1468 1464 1475 1490 1493 1506 1520 1517 1517 1527 1532 1533 1531 1528 1522 1516 1512 1504 1503 1509 1510 1511 1513 1513 1517 1516 1515 1519 1519 1521 1526 1528 1531 1533 1535 1538 1541 1543 1546 1548 1550 1553 1555 1557 1558 1559 1561 1562 1564 1566 1568 1569 1571 1572 1574 1575 1577 1578 1580 1581 1582 1584 1584 1585 1586 1587 1588 1589 1590 1591 1592 1593 1594 1595 1595
1474 1468 1450 1453 1457 1455 1464 1464 1458 1468 1473 1468 1468 1475 1475 1471 1482 1502 1508 1506 1511 1528 1534 1527 1526 1520 1512 1512 1506 1504 1511 1510 1510 1513 1513 1517 1516 1514 1517 1518 1520 1525 1527 1530 1533 1534 1537 1540 1542 1545 1547 1549 1551 1554 1556 1557 1559 1560 1561 1563 1565 1567 1568 1570 1572 1573 1575 1576 1577 1579 1580 1581 1583 1584 1585 1586 1587 1588 1589 1590 1591 1592 1593 1593 1594 1595
1475 1470 1452 1454 1463 1456 1456 1462 1460 1460 1466 1472 1476 1469 1462 1466 1477 1492 1508 1509 1510 1529 1536 1525 1528 1530 1524 1521 1511 1508 1517 1516 1511 1512 1513 1515 1516 1515 1515 1517 1520 1523 1526 1529 1532 1534 1537 1539 1541 1543 1546 1548 1550 1553 1555 1556 1559 1560 1561 1562 1564 1565 1567 1569 1571 1572 1574 1575 1577 1578 1579 1580 1582 1583 1585 1586 1587 1588 1589 1590 1591 1592 1593 1593 1594 1595
1467 1473 1459 1452 1461 1458 1453 1462 1468 1463 1460 1466 1469 1463 1468 1484 1491 1492 1504 1510 1514 1530 1537 1529 1530 1531 1526 1519 1510 1510 1518 1517 1512 1512 1513 1515 1516 1516 1516 1517 1520 1523 1526 1529 1531 1534 1536 1537 1540 1542 1544 1547 1549 1552 1554 1556 1558 1559 1560 1562 1563 1565 1566 1568 1570 1572 1573 1574 1576 1578 1578 1580 1581 1582 1584 1585 1586 1587 1588 1589 1590 1591 1592 1593 1594 1595
1463 1475 1472 1456 1454 1456 1457 1467 1474 1472 1464 1463 1465 1465 1468 1479 1486 1490 1494 1497 1506 1520 1530 1538 1542 1531 1516 1508 1505 1506 1510 1512 1511 1511 1512 1515 1517 1517 1517 1518 1520 1521 1525 1528 1530 1533 1534 1537 1540 1541 1543 1546 1548 1551 1553 1555 1557 1558 1560 1561 1563 1565 1566 1568 1570 1571 1572 1574 1576 1577 1578 1579 1580 1582 1583 1584 1585 1587 1587 1589 1590 1591 1592 1593 1594 1594
1465 1472 1476 1464 1455 1458 1465 1469 1470 1469 1468 1471 1475 1476 1473 1471 1474 1483 1486 1483 1492 1504 1510 1528 1542 1526 1505 1499 1500 1500 1501 1504 1506 1507 1510 1514 1515 1516 1516 1518 1519 1520 1523 1526 1529 1531 1533 1536 1538 1540 1543 1545 1547 1550 1551 1553 1556 1557 1559 1560 1562 1564 1565 1567 1569 1569 1571 1573 1575 1576 1577 1579 1580 1581 1582 1583 1585 1586 1587 1589 1590 1591 1591 1592 1593 1594
1468 1469 1473 1471 1465 1465 1464 1460 1458 1459 1460 1466 1473 1474 1474 1472 1475 1491 1497 1482 1480 1489 1491 1507 1532 1525 1500 1494 1497 1496 1497 1499 1501 1504 1508 1511 1513 1515 1515 1517 1518 1519 1522 1525 1527 1530 1532 1534 1537 1539 1542 1544 1546 1548 1550 1552 1554 1556 1558 1559 1561 1563 1564 1566 1568 1569 1570 1572 1574 1575 1576 1578 1579 1580 1582 1583 1584 1585 1587 1588 1589 1590 1591 1592 1592 1593
1466 1470 1476 1475 1468 1463 1456 1450 1452 1453 1451 1454 1460 1462 1464 1468 1474 1492 1503 1489 1480 1485 1480 1490 1520 1522 1498 1491 1494 1494 1495 1497 1499 1502 1505 1509 1512 1514 1516 1517 1518 1519 1522 1524 1526 1528 1530 1533 1536 1538 1541 1543 1545 1547 1549 1551 1553 1555 1556 1558 1560 1561 1563 1565 1567 1568 1570 1571 1573 1574 1575 1577 1579 1580 1581 1582 1583 1585 1586 1588 1589 1589 1590 1591 1592 1593
1470 1475 1482 1480 1470 1458 1448 1445 1449 1451 1452 1456 1457 1456 1459 1463 1466 1474 1483 1482 1484 1489 1483 1492 1519 1520 1498 1490 1494 1494 1495 1496 1498 1501 1505 1508 1510 1513 1515 1516 1516 1519 1521 1523 1525 1527 1529 1533 1535 1537 1540 1542 1544 1546 1548 1550 1551 1553 1555 1557 1559 1560 1562 1564 1566 1568 1569 1570 1572 1573 1575 1576 1578 1579 1581 1582 1583 1584 1586 1587 1588 1589 1590 1591 1592 1592
1480 1481 1483 1489 1486 1472 1462 1461 1463 1460 1461 1464 1460 1454 1456 1459 1460 1464 1469 1476 1487 1489 1484 1501 1529 1526 1501 1493 1496 1496 1496 1498 1499 1501 1503 1506 1508 1511 1514 1515 1516 1519 1520 1522 1524 1525 1528 1531 1533 1535 1538 1540 1543 1546 1547 1548 1550 1551 1554 1556 1558 1559 1561 1563 1565 1567 1568 1569 1571 1573 1574 1576 1577 1579 1580 1581 1583 1584 1585 1586 1587 1588 1589 1590 1592 1592
1484 1484 1483 1492 1497 1492 1489 1487 1478 1468 1464 1464 1460 1456 1457 1457 1461 1465 1468 1479 1492 1489 1483 1498 1519 1518 1503 1497 1499 1498 1499 1501 1503 1503 1503 1505 1507 1510 1511 1513 1515 1517 1520 1522 1522 1523 1526 1529 1531 1534 1536 1539 1543 1545 1546 1548 1549 1550 1552 1554 1556 1558 1560 1562 1564 1565 1566 1568 1570 1571 1573 1575 1576 1578 1579 1581 1582 1584 1585 1586 1586 1587 1588 1589 1591 1591
1484 1484 1482 1487 1491 1492 1493 1488 1473 1464 1466 1468 1466 1464 1462 1458 1459 1464 1470 1478 1481 1483 1490 1495 1499 1507 1508 1502 1501 1501 1499 1499 1500 1502 1503 1504 1506 1509 1511 1512 1513 1516 1520 1521 1522 1523 1525 1527 1531 1534 1536 1539 1542 1545 1546 1547 1548 1549 1551 1553 1555 1557 1558 1560 1562 1564 1565 1567 1569 1570 1572 1573 1575 1577 1578 1580 1581 1583 1584 1585 1586 1587 1587 1588 1589 1590
1485 1488 1484 1483 1484 1482 1481 1477 1467 1463 1467 1467 1465 1466 1466 1462 1461 1465 1472 1472 1469 1481 1502 1500 1493 1505 1511 1505 1503 1503 1499 1497 1496 1498 1501 1503 1505 1508 1510 1512 1514 1516 1519 1520 1521 1523 1526 1528 1531 1534 1536 1539 1542 1544 1545 1546 1547 1548 1549 1551 1553 1555 1557 1559 1560 1562 1564 1565 1567 1569 1570 1572 1574 1576 1578 1579 1580 1581 1583 1584 1586 1586 1587 1587 1588 1589
1486 1491 1483 1478 1479 1475 1472 1472 1468 1465 1465 1461 1458 1461 1464 1464 1465 1467 1466 1462 1464 1480 1497 1494 1491 1499 1502 1499 1502 1501 1497 1497 1497 1497 1501 1504 1507 1509 1510 1513 1515 1516 1518 1519 1521 1524 1526 1528 1531 1533 1535 1538 1541 1543 1544 1545 1545 1546 1547 1549 1550 1553 1555 1556 1559 1561 1563 1564 1566 1568 1569 1571 1573 1575 1577 1578 1579 1580 1582 1583 1585 1586 1586 1587 1588 1589
1487 1491 1484 1481 1479 1473 1470 1469 1467 1466 1464 1459 1457 1460 1461 1460 1461 1464 1464 1461 1465 1473 1476 1479 1487 1494 1493 1492 1495 1495 1495 1496 1497 1499 1503 1507 1510 1510 1510 1512 1514 1516 1517 1518 1520 1523 1525 1528 1530 1532 1534 1536 1540 1541 1542 1543 1543 1544 1546 1547 1548 1550 1552 1554 1557 1559 1561 1563 1565 1567 1568 1570 1572 1574 1575 1577 1577 1578 1580 1581 1583 1584 1585 1586 1587 1588
1489 1490 1485 1484 1484 1479 1472 1465 1464 1468 1466 1463 1464 1466 1466 1463 1461 1468 1473 1471 1472 1471 1467 1473 1489 1496 1493 1490 1491 1493 1495 1496 1497 1500 1504 1509 1512 1512 1510 1510 1512 1515 1517 1518 1519 1522 1525 1528 1530 1531 1532 1535 1537 1539 1541 1543 1545 1545 1546 1546 1547 1549 1551 1553 1555 1557 1560 1562 1564 1566 1568 1569 1571 1572 1573 1574 1575 1576 1578 1579 1580 1582 1583 1585 1586 1587
1489 1489 1485 1485 1490 1487 1473 1465 1466 1465 1464 1468 1475 1477 1478 1475 1474 1479 1483 1481 1482 1481 1477 1484 1498 1502 1497 1493 1494 1495 1494 1495 1498 1500 1503 1508 1512 1514 1513 1510 1511 1515 1518 1518 1520 1523 1526 1529 1530 1530 1532 1534 1536 1538 1541 1544 1547 1547 1547 1546 1547 1549 1550 1552 1554 1556 1558 1561 1563 1565 1567 1568 1569 1570 1572 1573 1574 1575 1576 1577 1579 1580 1581 1583 1584 1585
1488 1491 1489 1490 1496 1490 1474 1467 1466 1465 1473 1485 1486 1484 1484 1482 1481 1486 1488 1486 1487 1488 1493 1501 1504 1501 1498 1498 1499 1498 1496 1497 1499 1501 1503 1506 1510 1515 1515 1514 1516 1518 1519 1519 1521 1523 1525 1527 1529 1530 1532 1533 1536 1538 1540 1544 1546 1546 1546 1546 1547 1548 1549 1550 1552 1554 1556 1560 1563 1565 1566 1567 1567 1568 1570 1571 1572 1573 1574 1575 1577 1578 1579 1581 1582 1584
1488 1492 1492 1493 1498 1495 1482 1472 1472 1483 1499 1502 1490 1482 1483 1484 1487 1494 1495 1493 1491 1491 1497 1504 1504 1500 1501 1501 1501 1501 1500 1501 1502 1503 1504 1506 1510 1514 1515 1516 1518 1519 1518 1519 1521 1523 1524 1526 1527 1529 1530 1532 1534 1536 1539 1541 1543 1543 1544 1544 1545 1546 1547 1549 1550 1551 1553 1556 1560 1562 1563 1565 1565 1567 1568 1569 1570 1571 1572 1573 1575 1576 1578 1579 1580 1582
1492 1492 1492 1492 1496 1496 1488 1484 1497 1513 1512 1496 1486 1485 1485 1485 1489 1495 1498 1498 1497 1497 1500 1504 1505 1505 1504 1504 1504 1503 1503 1504 1505 1506 1506 1508 1510 1513 1516 1516 1516 1516 1518 1520 1521 1523 1524 1525 1526 1528 1529 1531 1533 1534 1537 1538 1540 1541 1542 1542 1543 1545 1546 1548 1549 1550 1552 1555 1557 1558 1560 1562 1564 1565 1567 1568 1569 1570 1571 1572 1573 1574 1575 1576 1579 1581
1494 1493 1492 1492 1494 1497 1497 1499 1513 1519 1504 1489 1491 1493 1490 1491 1494 1499 1506 1506 1501 1501 1504 1506 1508 1507 1506 1507 1508 1510 1509 1507 1507 1509 1510 1510 1511 1514 1517 1518 1517 1517 1519 1520 1521 1523 1524 1525 1526 1528 1529 1531 1532 1533 1535 1536 1538 1539 1540 1541 1543 1544 1546 1547 1548 1550 1552 1554 1555 1557 1558 1560 1562 1563 1565 1567 1569 1569 1569 1570 1571 1571 1572 1575 1578 1580
1493 1494 1494 1495 1495 1498 1501 1503 1506 1509 1504 1502 1505 1501 1497 1500 1500 1502 1511 1514 1507 1504 1507 1509 1509 1508 1508 1509 1510 1514 1514 1511 1511 1514 1515 1514 1514 1516 1518 1519 1518 1519 1520 1520 1522 1523 1524 1525 1527 1528 1529 1530 1531 1533 1534 1535 1536 1537 1538 1540 1542 1543 1544 1546 1547 1548 1549 1551 1552 1554 1555 1557 1558 1560 1563 1566 1567 1567 1568 1568 1569 1570 1571 1573 1575 1575
1491 1493 1496 1499 1497 1495 1501 1506 1507 1514 1520 1516 1511 1506 1501 1502 1500 1499 1509 1517 1513 1509 1510 1511 1511 1510 1511 1512 1514 1517 1519 1518 1517 1519 1519 1519 1518 1518 1519 1520 1520 1521 1521 1522 1523 1523 1525 1526 1527 1528 1530 1530 1531 1532 1533 1534 1534 1535 1537 1538 1539 1541 1543 1545 1546 1547 1547 1547 1549 1551 1552 1554 1555 1557 1560 1562 1563 1564 1566 1566 1566 1567 1568 1569 1571 1572
1490 1491 1493 1499 1498 1495 1503 1511 1513 1522 1528 1521 1512 1508 1504 1503 1501 1501 1515 1526 1519 1512 1513 1514 1514 1514 1514 1516 1518 1520 1524 1528 1527 1523 1523 1524 1523 1522 1523 1523 1523 1524 1525 1525 1525 1526 1526 1527 1528 1529 1530 1530 1531 1532 1533 1533 1534 1534 1535 1535 1537 1539 1541 1543 1545 1546 1546 1546 1547 1549 1550 1552 1554 1556 1558 1560 1560 1562 1563 1563 1564 1565 1565 1566 1568 1569
1492 1492 1494 1500 1501 1498 1502 1508 1511 1520 1526 1519 1511 1509 1507 1505 1503 1508 1527 1536 1523 1515 1518 1518 1517 1518 1517 1518 1519 1520 1525 1531 1531 1528 1527 1527 1528 1528 1527 1527 1527 1527 1528 1529 1529 1529 1529 1529 1530 1530 1531 1532 1533 1533 1534 1534 1534 1535 1535 1535 1536 1538 1541 1543 1544 1545 1546 1545 1545 1547 1549 1551 1553 1555 1556 1558 1559 1560 1561 1561 1561 1562 1563 1564 1566 1567
1497 1494 1493 1496 1498 1497 1500 1506 1512 1518 1520 1515 1511 1510 1506 1505 1508 1518 1531 1532 1522 1519 1522 1520 1520 1521 1519 1518 1519 1521 1526 1530 1531 1531 1531 1531 1532 1532 1531 1531 1531 1531 1531 1532 1532 1532 1532 1532 1533 1533 1534 1535 1536 1536 1537 1537 1537 1537 1537 1537 1538 1539 1541 1543 1544 1545 1546 1545 1545 1547 1548 1550 1552 1553 1554 1556 1558 1559 1560 1560 1561 1562 1563 1563 1564 1565
1506 1501 1497 1497 1497 1495 1496 1503 1515 1523 1521 1514 1512 1510 1505 1509 1520 1528 1527 1523 1522 1523 1523 1522 1523 1523 1522 1522 1522 1524 1528 1530 1531 1532 1532 1533 1535 1536 1535 1535 1535 1533 1533 1533 1533 1533 1534 1535 1536 1536 1537 1538 1539 1540 1540 1540 1540 1540 1540 1541 1541 1542 1543 1544 1545 1546 1547 1547 1548 1549 1549 1550 1551 1552 1554 1556 1558 1558 1559 1560 1561 1563 1563 1563 1563 1565
1507 1507 1507 1507 1505 1503 1502 1511 1526 1533 1525 1515 1513 1513 1513 1518 1527 1528 1524 1522 1524 1524 1524 1525 1525 1524 1525 1526 1526 1527 1529 1530 1532 1533 1533 1534 1535 1535 1536 1537 1537 1536 1535 1534 1534 1535 1535 1536 1537 1538 1539 1540 1541 1542 1543 1543 1543 1543 1544 1544 1545 1546 1547 1547 1547 1548 1550 1550 1550 1550 1550 1551 1552 1553 1555 1557 1557 1558 1558 1560 1563 1565 1565 1566 1566 1568
1504 1509 1515 1513 1511 1513 1519 1525 1531 1531 1524 1519 1519 1521 1523 1525 1526 1526 1525 1526 1526 1525 1526 1527 1527 1527 1528 1527 1528 1530 1531 1532 1533 1534 1534 1535 1535 1535 1537 1538 1538 1539 1538 1537 1537 1537 1537 1538 1538 1539 1540 1541 1542 1543 1545 1545 1544 1545 1546 1547 1547 1548 1549 1549 1549 1550 1551 1552 1552 1551 1551 1552 1553 1555 1557 1557 1557 1557 1558 1561 1564 1567 1567 1568 1569 1570
1507 1508 1513 1514 1513 1516 1522 1525 1525 1523 1523 1523 1524 1525 1526 1526 1527 1528 1528 1527 1527 1527 1528 1528 1528 1529 1529 1529 1530 1532 1533 1534 1535 1535 1535 1536 1536 1537 1538 1539 1540 1541 1540 1539 1539 1539 1539 1540 1540 1540 1542 1542 1542 1544 1546 1546 1546 1546 1547 1548 1549 1549 1550 1550 1551 1552 1552 1553 1553 1553 1553 1553 1555 1557 1558 1557 1558 1558 1559 1561 1565 1568 1568 1568 1569 1570
1507 1506 1509 1513 1515 1517 1520 1523 1523 1523 1525 1525 1526 1527 1528 1528 1528 1529 1528 1528 1528 1529 1529 1529 1529 1529 1529 1530 1531 1532 1533 1534 1535 1535 1536 1536 1536 1537 1538 1540 1541 1541 1541 1541 1541 1540 1541 1541 1541 1542 1543 1544 1545 1545 1546 1546 1547 1548 1548 1549 1550 1550 1551 1552 1553 1553 1553 1554 1553 1553 1554 1556 1558 1559 1559 1559 1559 1560 1561 1563 1566 1568 1568 1568 1569 1569
1506 1506 1508 1511 1516 1521 1525 1525 1523 1524 1526 1526 1527 1529 1529 1529 1530 1530 1529 1530 1530 1529 1529 1530 1530 1529 1529 1529 1530 1531 1534 1534 1535 1536 1537 1537 1538 1538 1539 1540 1542 1542 1542 1542 1541 1541 1541 1541 1542 1542 1543 1544 1546 1546 1547 1547 1548 1549 1550 1550 1551 1551 1552 1553 1553 1554 1554 1554 1554 1554 1555 1557 1559 1560 1560 1561 1561 1562 1563 1565 1566 1567 1567 1568 1569 1569
1509 1510 1513 1515 1517 1522 1526 1525 1524 1526 1528 1528 1529 1530 1530 1530 1531 1531 1531 1531 1530 1530 1531 1531 1530 1530 1530 1530 1531 1533 1534 1535 1536 1537 1538 1538 1539 1540 1540 1542 1542 1542 1543 1543 1542 1541 1542 1542 1543 1543 1543 1545 1546 1547 1548 1549 1549 1550 1551 1550 1551 1552 1552 1553 1554 1554 1555 1555 1555 1555 1556 1557 1559 1560 1561 1562 1562 1563 1564 1565 1565 1566 1566 1567 1568 1568
1511 1513 1517 1519 1520 1522 1525 1525 1525 1527 1529 1529 1530 1531 1531 1532 1532 1532 1532 1532 1532 1531 1532 1531 1532 1532 1532 1533 1534 1534 1535 1536 1537 1537 1538 1539 1539 1540 1541 1541 1541 1542 1542 1542 1542 1542 1542 1542 1543 1543 1544 1545 1546 1547 1548 1549 1550 1551 1551 1551 1551 1552 1553 1554 1554 1555 1556 1556 1556 1556 1556 1558 1559 1560 1561 1562 1562 1563 1564 1564 1564 1565 1566 1567 1567 1568
1514 1516 1517 1520 1523 1526 1527 1526 1526 1528 1531 1532 1532 1532 1532 1533 1533 1533 1534 1533 1533 1534 1533 1533 1533 1533 1533 1535 1535 1536 1536 1537 1538 1539 1539 1540 1541 1541 1542 1541 1542 1542 1542 1542 1542 1542 1542 1543 1543 1544 1545 1546 1546 1547 1548 1549 1550 1551 1551 1551 1551 1552 1553 1554 1554 1555 1556 1556 1557 1557 1557 1558 1559 1559 1560 1561 1562 1563 1563 1563 1564 1565 1566 1566 1567 1567
1516 1518 1519 1522 1526 1529 1528 1527 1527 1529 1531 1533 1533 1533 1534 1534 1534 1535 1535 1535 1535 1535 1535 1535 1535 1534 1535 1535 1536 1536 1537 1538 1539 1539 1539 1540 1542 1543 1542 1542 1542 1543 1543 1543 1543 1543 1543 1544 1544 1545 1546 1546 1546 1547 1548 1548 1550 1550 1550 1551 1551 1551 1552 1553 1554 1556 1556 1556 1557 1557 1557 1558 1559 1559 1560 1561 1561 1562 1563 1563 1564 1565 1565 1566 1566 1566